Location: Silverdale
(47.6506°N, 122.6941°W)
Time: 10:21:55
(UTC+00:00)

Tiros 1 despin weight - Pass Details

Date: 04 October 2022
Orbit: 590 x 637 km, 48.2° (Epoch: 02 December)

Event Time Altitude Azimuth Distance (km) Brightness Sun altitude
Rises 02:37:58 0° 272° (W) 2,865 ? -9.6°
Reaches altitude 10° 02:40:15 10° 273° (W) 1,969 ? -10.0°
Maximum altitude 02:44:48 83° 0° (N) 630 ? -10.8°
Enters shadow 02:48:27 16° 89° (E) 1,634 ? -11.4°
